Theta_e
310 313 316 312 299 298 293 294 299 298 299 304 305 305 306 310 308 302 322 323 329 331 334 336 336 336 335 333 332 332 331 331 331 331 330 330 331 330 331 333 335 338 341 342 342 341 340 343 345
311 311 314 307 294 291 293 296 296 300 302 305 305 305 304 303 310 314 319 326 329 330 332 331 333 332 331 330 329 328 328 328 328 328 328 328 326 327 327 328 329 331 334 334 335 335 334 336 338
309 310 306 300 294 291 293 295 298 301 302 304 303 304 304 303 308 317 321 327 328 329 330 328 330 329 328 327 327 326 326 326 326 326 325 324 325 325 325 326 326 326 327 330 332 331 331 330 332
311 309 304 295 292 295 294 298 300 301 303 304 304 302 303 305 309 318 324 325 326 327 328 327 327 327 326 325 325 324 325 324 324 323 322 322 322 322 323 323 323 324 325 325 324 325 325 325 326
309 305 295 293 294 296 298 299 299 299 300 302 303 300 302 305 309 318 322 324 324 325 326 325 325 324 324 323 323 323 322 321 321 320 320 319 319 319 320 320 320 321 321 321 321 321 320 320 320
301 302 292 291 294 295 297 300 300 299 301 301 301 301 302 306 312 317 321 323 324 322 323 322 321 322 321 321 320 320 319 318 318 317 316 316 316 316 316 317 317 318 318 318 318 318 316 315 315
298 296 292 292 292 293 296 298 297 299 299 300 303 300 302 304 312 317 320 321 321 320 320 319 318 317 319 318 317 316 316 315 313 312 312 311 310 311 311 312 314 314 315 316 315 314 313 312 312
300 297 291 292 292 293 296 296 297 297 298 300 303 299 300 305 313 316 317 317 317 316 316 315 315 314 315 315 313 312 311 311 309 307 305 305 305 304 306 307 309 310 310 311 311 311 309 308 308
299 293 291 292 292 295 296 295 297 297 297 298 300 300 301 307 311 312 312 312 312 312 312 311 309 310 312 312 309 308 306 305 304 303 301 302 305 304 303 303 304 305 305 306 307 307 306 305 304
296 292 294 296 296 295 295 295 296 295 296 297 297 299 302 306 309 310 310 309 309 309 309 308 306 306 308 305 305 304 302 303 303 303 302 304 303 302 301 300 299 300 301 301 303 303 302 304 306
295 293 296 294 296 295 295 294 297 296 294 298 298 299 300 304 307 309 309 310 309 309 308 306 304 305 304 303 304 304 304 304 303 302 302 302 302 303 303 303 302 303 300 302 303 303 304 304 305
291 294 294 295 295 294 294 296 295 296 299 299 300 300 300 301 304 306 308 308 308 307 306 304 304 302 303 303 303 303 302 303 303 302 301 303 302 303 302 301 301 301 302 302 302 303 303 303 303
291 293 294 294 294 295 294 294 295 296 299 297 297 297 299 301 302 306 308 308 307 305 305 303 302 302 302 302 302 302 302 302 301 302 301 302 302 301 301 300 300 300 300 300 300 301 301 301 302
296 294 294 295 295 294 293 295 293 298 298 298 295 296 296 297 300 302 302 303 304 305 305 304 302 301 301 301 301 301 300 300 300 301 300 300 301 300 299 299 299 299 299 299 299 298 299 299 300
293 291 293 294 294 294 294 291 291 299 296 295 294 295 295 295 295 297 301 302 303 303 304 303 301 301 300 300 300 299 299 299 299 300 299 299 299 299 298 298 298 298 298 298 298 298 299 299 299
291 291 290 294 293 294 294 292 298 296 294 294 294 295 294 295 294 294 295 296 298 300 302 302 300 300 299 298 298 298 298 298 298 298 298 298 297 297 297 297 297 297 297 297 296 297 297 298 298
290 289 289 291 293 291 292 293 295 293 293 293 293 294 294 294 293 293 294 294 296 297 300 300 300 299 298 297 297 297 297 297 297 297 297 296 295 296 296 297 297 296 296 296 295 296 296 296 298
287 285 287 289 291 290 289 290 292 292 292 293 294 293 292 292 293 292 292 293 294 297 299 299 298 297 297 296 296 296 296 295 295 296 295 294 296 295 295 295 295 295 294 295 295 294 296 296 296
291 290 289 292 291 289 289 290 293 294 292 292 292 292 291 291 292 291 291 292 293 295 297 297 296 295 295 295 294 294 294 294 294 294 294 293 294 293 294 294 294 294 293 293 293 294 294 295 296
289 288 288 289 288 287 289 288 292 293 293 293 294 292 292 290 290 290 291 292 292 294 295 295 295 294 295 295 294 295 295 294 294 293 293 292 292 292 292 293 292 292 292 292 292 293 293 294 294
287 287 288 288 286 287 286 288 290 292 293 293 291 293 291 291 290 290 290 291 292 293 293 293 294 293 293 293 292 291 291 292 291 291 291 291 290 291 292 291 291 291 291 291 292 292 291 292 294
283 290 288 287 284 283 286 283 292 290 288 286 288 288 289 290 290 291 290 290 291 292 293 293 292 292 291 291 291 291 291 290 292 291 291 290 289 289 290 290 290 290 291 290 291 292 291 290 291
286 287 286 286 284 284 284 282 290 285 285 287 286 287 289 290 290 289 290 290 291 291 291 292 291 291 290 290 290 290 289 290 290 289 288 289 289 289 289 289 289 289 289 290 289 289 289 289 288
288 285 284 284 283 277 284 283 287 290 288 288 287 287 288 288 288 289 290 290 290 290 290 290 290 290 290 289 289 289 288 289 288 288 287 288 288 288 288 288 288 288 288 288 288 287 287 286 287
286 283 277 275 275 277 281 281 287 289 286 287 287 287 287 287 288 288 288 288 289 289 289 289 289 288 289 288 288 288 288 288 287 287 287 286 287 287 287 287 287 288 288 288 287 286 286 286 286
284 285 279 274 275 278 278 277 285 285 282 280 286 286 286 287 288 288 288 288 289 288 288 289 288 288 288 287 287 287 287 287 287 287 286 286 287 287 287 286 286 286 286 286 286 286 286 286 286
283 281 286 276 273 276 278 281 285 283 281 281 281 285 285 287 287 286 286 286 287 287 286 286 286 286 287 286 286 286 286 285 285 285 285 286 286 286 284 284 284 285 285 285 285 285 284 285 285
285 287 278 281 273 273 279 277 283 279 281 281 281 284 286 286 285 284 284 284 284 284 284 283 283 283 283 284 285 284 285 284 283 283 282 283 284 284 283 283 283 283 284 284 284 284 285 284 284
282 281 283 283 281 279 278 282 286 285 283 282 283 285 285 285 285 284 284 283 280 279 278 279 279 279 280 281 282 282 283 283 282 281 282 282 282 282 282 282 282 282 282 283 283 283 284 283 283
286 285 283 281 276 276 276 282 279 278 280 285 284 284 285 285 284 283 282 280 279 278 278 277 277 276 277 278 279 280 281 280 280 280 280 281 281 282 282 282 281 281 282 283 282 282 283 283 282
Wind_Speed
1 2 2 3 6 5 5 4 2 5 4 3 2 3 4 5 3 3 6 2 11 11 10 12 13 14 15 14 13 12 12 12 13 13 13 13 14 13 13 14 14 13 13 14 13 13 12 12 12
2 1 2 1 6 7 5 4 8 7 3 3 3 3 4 2 3 6 8 8 11 10 9 10 11 13 14 12 13 12 12 13 13 13 13 13 13 12 13 13 13 13 13 12 12 11 10 12 12
2 2 3 4 4 9 3 5 5 1 3 5 4 3 1 2 3 5 5 11 11 10 9 10 11 12 12 12 13 12 12 13 13 13 13 13 13 13 13 13 13 12 12 12 12 12 12 11 11
2 4 3 6 11 6 4 2 2 2 4 5 2 4 3 3 3 4 11 11 11 10 10 11 11 12 12 12 12 12 13 13 13 13 13 13 13 13 13 13 12 12 12 11 10 10 11 10 10
2 2 6 7 12 4 6 5 4 4 1 4 4 2 1 4 3 8 12 11 11 9 9 10 10 10 11 11 12 12 13 13 13 13 13 13 13 12 12 12 11 11 11 11 10 10 10 10 10
5 2 8 11 15 5 5 8 7 10 6 3 5 3 3 4 7 10 12 11 10 10 9 10 9 8 10 11 12 12 12 12 12 12 12 12 12 12 11 11 11 11 10 10 10 10 10 10 9
4 5 8 11 11 7 4 4 9 9 9 11 1 6 4 6 6 10 11 10 9 10 10 9 9 9 9 11 12 12 12 12 12 12 12 12 12 12 12 12 11 11 10 10 10 10 10 10 10
4 4 5 7 10 10 2 5 2 8 7 3 3 7 5 7 11 11 10 9 9 8 8 8 8 7 8 9 11 11 12 12 12 11 11 10 10 10 11 9 11 11 11 10 10 10 10 9 8
2 6 10 10 8 4 5 6 3 2 4 4 5 2 5 12 13 12 11 10 9 8 8 7 7 7 7 7 8 10 11 10 9 8 8 5 5 5 6 9 9 9 9 9 9 9 9 9 3
8 6 11 7 7 4 4 5 4 5 5 6 5 4 6 11 14 15 14 14 12 12 10 8 8 7 6 5 6 5 5 4 4 4 5 4 5 5 4 4 6 6 8 6 7 8 6 6 5
7 10 10 7 8 5 4 5 4 6 8 9 8 8 9 11 13 14 14 13 14 12 10 10 9 8 7 5 4 3 2 3 3 4 4 4 2 3 3 3 4 5 6 4 5 5 4 6 5
7 11 7 4 7 6 6 2 5 11 9 0 5 5 11 13 14 14 14 13 11 12 12 11 10 9 8 5 4 4 3 2 2 3 3 1 1 2 3 3 4 4 4 6 5 4 5 6 5
12 9 8 9 6 7 2 10 9 13 9 4 6 5 7 9 11 12 11 10 11 13 13 12 11 10 8 7 4 4 3 2 2 2 2 1 1 2 2 3 3 4 5 5 5 5 5 5 6
8 10 8 7 10 9 10 10 6 8 7 16 10 9 7 9 11 10 11 12 13 12 13 13 12 10 9 7 6 4 4 4 2 2 1 1 1 2 3 3 3 4 4 5 5 6 6 6 5
4 6 7 13 10 8 9 10 18 16 7 11 11 7 5 4 3 8 7 10 10 11 12 14 13 11 10 9 7 5 4 4 3 2 2 1 1 2 3 3 4 4 4 6 5 5 5 6 5
5 3 9 3 12 6 13 18 8 9 14 14 12 9 6 5 4 3 4 6 7 9 11 13 11 12 10 8 6 5 4 3 3 3 2 2 1 3 3 3 3 3 4 4 5 5 6 5 5
7 12 13 6 13 7 16 8 5 6 13 13 13 10 7 7 6 4 5 6 7 8 11 12 13 12 11 8 6 5 5 4 3 3 2 2 3 3 3 3 3 4 4 4 5 5 5 6 5
14 11 9 13 9 11 12 17 6 10 11 13 12 9 9 9 7 2 3 3 4 7 10 12 11 12 11 7 5 4 4 3 3 3 3 3 2 3 3 3 4 4 4 4 4 6 5 6 5
11 16 17 9 7 9 17 17 17 15 14 14 13 12 11 10 5 2 1 0 2 5 10 13 14 13 9 7 6 4 5 4 4 3 3 3 3 3 4 3 4 4 5 5 5 5 5 5 5
14 14 14 3 6 7 7 16 15 16 19 21 19 16 14 11 9 5 3 2 4 7 9 11 12 12 9 5 4 2 2 2 2 3 4 4 4 3 4 4 4 4 4 5 5 4 4 3 4
22 23 18 14 4 4 7 22 19 15 17 14 11 13 12 14 13 9 7 5 7 8 10 10 11 10 8 6 4 3 3 2 4 5 4 5 5 5 5 5 4 4 4 4 4 4 4 3 1
20 15 15 11 4 12 2 15 14 11 13 12 13 14 14 14 11 10 9 8 7 7 8 8 9 9 7 7 6 6 5 5 3 3 3 4 5 5 5 5 5 4 3 5 4 3 4 3 3
10 4 8 11 14 9 12 7 8 6 10 16 16 15 15 14 13 12 10 8 8 8 7 7 8 7 7 6 5 5 6 4 4 4 6 6 5 6 5 6 5 5 4 4 4 4 4 2 3
15 8 5 3 4 8 13 14 21 12 9 6 16 18 16 14 11 9 7 7 7 7 7 7 7 7 7 7 6 7 7 6 5 5 5 4 4 4 6 6 5 5 5 5 4 4 5 4 3
10 12 5 5 7 8 6 13 26 2 5 5 16 19 16 14 11 11 10 8 8 8 8 6 7 8 7 7 7 7 7 7 7 6 5 5 4 5 5 6 6 5 5 5 5 5 5 4 4
21 14 7 10 9 5 5 14 9 1 3 1 3 12 15 13 10 10 8 7 7 6 6 7 7 6 6 7 8 6 7 5 5 6 5 5 5 5 4 5 6 6 6 6 5 5 5 4 4
8 10 2 6 2 2 7 8 13 8 5 5 11 17 15 13 10 9 7 6 6 6 5 5 5 5 5 7 6 6 6 7 6 6 6 6 6 5 5 5 6 6 6 5 5 5 4 4 4
6 13 5 4 8 7 7 8 9 8 12 11 14 17 15 12 10 8 7 6 5 3 2 3 3 4 4 4 5 6 6 6 5 5 7 7 5 6 6 7 7 7 7 6 6 6 5 6 5
8 7 6 4 3 6 5 7 2 2 14 16 15 14 14 13 11 9 7 5 3 2 1 1 3 4 4 4 4 5 6 6 6 7 7 7 6 7 7 8 8 8 8 7 7 7 7 7 7
5 5 8 7 7 2 2 6 1 1 1 11 12 11 12 11 10 7 6 4 3 2 1 1 1 3 4 4 5 6 6 7 6 7 7 7 7 7 8 8 9 9 8 8 8 8 7 8 8
Wind_Direction
286 347 272 222 218 242 231 222 300 205 203 174 137 225 238 339 272 12 127 96 152 145 134 113 103 104 104 103 109 101 97 93 87 84 77 72 66 60 58 53 47 40 44 45 44 40 29 21 37
307 189 223 191 247 221 205 187 212 221 75 162 170 176 220 173 71 98 151 143 150 145 140 109 106 106 108 113 106 100 95 93 87 83 77 73 66 61 59 58 54 50 48 44 39 38 33 29 30
253 297 226 238 240 234 247 204 208 212 203 192 187 259 302 97 102 126 101 142 147 136 126 111 112 117 117 111 103 100 99 94 88 83 78 73 69 64 60 56 48 46 47 49 47 43 38 32 31
232 186 148 246 237 252 257 106 157 194 170 216 239 203 156 36 102 108 141 148 146 137 130 123 124 120 116 113 107 104 98 92 87 83 78 73 67 63 61 56 51 48 43 43 42 38 34 32 31
128 236 234 248 249 254 242 261 211 218 191 189 197 160 148 123 111 148 152 159 148 138 130 127 116 117 116 112 104 99 93 88 82 80 73 70 65 60 59 53 48 46 41 36 31 34 32 28 22
159 258 236 243 244 237 247 238 222 233 245 165 208 213 106 106 157 155 156 159 150 140 136 127 97 102 111 107 100 96 93 91 88 83 80 74 70 63 54 52 47 41 35 34 30 29 25 23 22
206 205 254 269 268 271 227 182 224 228 221 210 175 211 96 166 140 154 158 152 150 142 137 133 131 112 97 102 102 101 98 95 89 84 78 75 67 63 58 48 42 38 35 33 26 21 17 15 12
193 218 219 232 257 271 175 201 285 230 209 91 213 215 167 146 150 154 159 158 155 151 150 144 139 138 139 128 107 106 104 101 92 83 77 75 72 59 49 42 40 36 28 26 20 16 10 4 8
251 226 233 234 220 246 158 214 169 347 262 206 185 309 79 136 151 160 166 174 170 165 166 160 155 149 145 135 113 112 104 101 101 96 82 91 64 53 49 47 35 37 27 20 13 7 360 344 327
219 231 228 229 224 236 188 228 180 211 203 233 206 128 130 157 170 178 187 187 189 184 180 176 169 162 160 142 142 120 121 107 101 91 76 67 54 46 32 56 33 29 15 9 3 359 338 318 331
185 240 220 214 221 234 233 223 200 219 215 221 225 187 169 179 193 199 202 202 197 190 184 186 178 174 176 162 162 160 148 132 106 83 64 57 49 22 12 357 356 351 359 351 344 344 349 340 330
206 235 204 186 201 186 227 225 229 227 245 94 213 151 173 192 202 208 206 203 197 196 194 186 186 182 182 174 184 164 163 149 127 85 67 43 42 24 8 355 348 343 345 337 338 333 330 322 318
219 205 199 218 200 221 206 232 250 250 237 191 158 174 190 201 211 215 218 208 201 205 199 193 189 189 181 182 170 168 158 159 119 121 77 13 21 5 344 345 335 336 331 333 326 323 319 312 309
205 220 211 215 213 220 216 238 195 244 235 223 211 220 219 224 218 215 212 215 211 209 206 193 192 191 181 180 173 164 164 146 159 152 108 93 348 343 335 329 330 325 331 328 321 321 312 304 298
151 238 229 224 216 218 213 233 231 247 184 176 189 187 192 189 226 221 230 232 221 218 209 197 189 184 182 177 169 167 164 173 175 163 159 158 273 320 318 317 318 330 326 310 305 301 293 289 291
206 222 243 158 189 185 188 259 234 189 193 198 194 197 214 215 231 238 252 253 246 238 215 196 184 180 178 174 168 163 164 178 178 187 203 201 241 289 288 296 303 326 311 313 309 307 301 288 296
200 245 228 239 195 155 204 244 188 173 192 197 195 203 219 232 235 246 272 259 254 238 216 191 181 175 168 162 162 162 167 186 184 203 222 223 251 263 274 280 301 308 303 300 307 302 298 300 300
220 228 232 229 184 206 204 241 189 195 193 198 202 211 216 223 221 260 298 287 258 227 198 181 173 166 162 155 157 164 173 185 200 212 225 233 235 241 259 271 283 293 293 291 299 298 298 296 308
269 239 241 228 177 212 226 241 239 215 216 218 218 214 212 207 181 209 289 69 154 169 172 172 165 164 161 166 170 192 206 198 207 223 219 216 219 234 257 263 276 284 287 300 298 300 295 294 321
226 237 230 246 162 218 253 254 243 242 231 229 224 214 201 182 184 178 157 147 167 155 160 164 165 165 172 175 174 190 182 199 243 216 216 227 237 253 261 267 268 275 284 277 285 298 304 281 328
232 236 240 244 162 240 287 272 239 236 237 228 229 212 192 187 178 174 167 149 145 150 158 162 163 166 171 165 147 147 157 198 215 215 223 221 238 251 256 252 259 262 269 276 283 294 301 301 289
229 219 237 231 212 249 234 279 232 210 219 214 204 189 182 181 181 175 171 168 165 157 156 162 164 169 168 171 187 212 239 250 247 257 241 234 243 253 247 251 252 259 264 264 272 284 304 295 284
230 30 229 229 236 271 220 258 243 165 229 221 202 193 184 179 178 175 176 174 175 170 174 175 175 179 174 188 206 214 235 247 253 247 252 245 246 245 239 243 241 250 251 251 261 275 287 286 285
144 113 92 110 176 224 216 213 268 210 205 209 190 186 175 170 172 172 170 171 177 173 182 187 188 192 192 197 205 224 238 244 245 243 252 248 249 239 230 232 244 249 251 249 241 251 253 247 242
162 144 152 188 202 235 156 198 249 321 192 189 184 178 171 168 171 172 175 176 178 184 189 192 200 208 206 212 222 226 236 245 254 258 256 256 247 236 232 230 239 245 246 247 248 245 241 240 242
188 182 180 209 198 183 154 223 242 292 86 107 156 154 158 166 170 175 176 182 185 192 197 203 211 222 215 221 228 224 231 239 247 250 252 254 247 243 239 238 250 251 246 244 244 243 239 239 245
166 214 89 107 13 188 201 258 271 188 164 162 160 158 167 170 171 170 164 172 174 184 191 206 220 227 222 222 226 229 234 241 251 253 256 255 252 231 221 225 240 248 244 249 258 247 238 241 244
199 135 149 179 172 219 214 264 249 203 190 169 170 171 169 166 164 161 157 160 160 173 192 224 221 224 234 229 230 238 237 240 242 246 247 245 242 237 229 229 235 240 236 232 233 238 232 236 238
156 177 186 160 200 213 246 240 215 227 182 175 177 171 167 168 165 158 155 142 115 111 72 274 258 250 242 232 235 240 244 242 239 244 241 244 237 234 237 238 238 237 237 231 232 237 240 234 239
230 214 180 195 184 261 1 272 86 52 251 174 166 163 163 161 156 154 148 142 142 136 120 341 310 285 271 259 251 243 247 241 235 245 247 243 240 232 238 239 237 235 232 232 231 234 227 228 236